Change the Weather History Date:

Tuesday, December 10, 2013

  Actual Average Record
Temperature  
Mean Temperature 35 °F -  
Max Temperature 45 °F 60 °F 82 °F (1996)
Min Temperature 25 °F 41 °F 25 °F (2013)
Degree Days  
Heating Degree Days 30    
Moisture  
Dew Point 20 °F    
Average Humidity 60    
Maximum Humidity 79    
Minimum Humidity 34    
Precipitation  
Precipitation 0.00 in - - ()
Sea Level Pressure  
Sea Level Pressure 30.53 in    
Wind  
Wind Speed 8 mph (NW)    
Max Wind Speed 14 mph    
Max Gust Speed -    
Visibility 10 miles    
Events      
Averages and records for this station are not official NWS values.
T = Trace of Precipitation, MM = Missing Value Source: NWS Daily Summary

Daily Weather History Graph

Daily Weather History Graph

Search for Another Location

Airport or City:

Trip Planner

Search our weather history database for the weather conditions in past years. The results will help you decide how hot, cold, wet, or windy it might be!

Date:

Astronomy

Dec. 10, 2013 Rise Set
Actual Time 7:18 AM CST 5:28 PM CST
Civil Twilight 6:52 AM CST 5:55 PM CST
Nautical Twilight 6:21 AM CST 6:25 PM CST
Astronomical Twilight 5:52 AM CST 6:55 PM CST
Moon 1:11 PM CST (12/10) 1:00 AM CST (12/10)
Length of Visible Light 11h 03m
Length of Day
10h 10m
Waxing Gibbous, 62% of the Moon is Illuminated
Dec 10
Waxing Gibbous
Dec 17
Full
Dec 25
Last Quarter
Jan 1
New
Jan 7
First Quarter

Hourly Weather History & Observations

Time (CST) Temp. Windchill Dew Point Humidity Pressure Visibility Wind Dir Wind Speed Gust Speed Precip Events Conditions
12:56 AM 30.9 °F 21.7 °F 25.0 °F 79% 30.52 in 10.0 mi NW 11.5 mph - N/A   Clear
1:56 AM 30.0 °F 20.0 °F 23.0 °F 75% 30.53 in 10.0 mi NW 12.7 mph - N/A   Clear
2:56 AM 28.9 °F 18.2 °F 21.0 °F 72% 30.55 in 10.0 mi NW 13.8 mph - N/A   Clear
3:56 AM 28.0 °F 20.0 °F 21.0 °F 75% 30.56 in 10.0 mi NW 8.1 mph - N/A   Clear
4:56 AM 27.0 °F 19.5 °F 19.9 °F 75% 30.56 in 10.0 mi WNW 6.9 mph - N/A   Clear
5:56 AM 26.1 °F 18.4 °F 19.0 °F 75% 30.55 in 10.0 mi WNW 6.9 mph - N/A   Clear
6:56 AM 25.0 °F 16.3 °F 18.0 °F 75% 30.58 in 10.0 mi WNW 8.1 mph - N/A   Clear
7:56 AM 25.0 °F 15.5 °F 18.0 °F 75% 30.60 in 10.0 mi WNW 9.2 mph - N/A   Clear
8:56 AM 28.0 °F 20.8 °F 18.0 °F 66% 30.62 in 10.0 mi NNW 6.9 mph - N/A   Clear
9:56 AM 32.0 °F 24.8 °F 17.1 °F 54% 30.63 in 10.0 mi NNW 8.1 mph - N/A   Clear
10:56 AM 34.0 °F 27.2 °F 17.1 °F 50% 30.63 in 10.0 mi NNW 8.1 mph - N/A   Clear
11:56 AM 37.9 °F 32.7 °F 18.0 °F 45% 30.61 in 10.0 mi North 6.9 mph - N/A   Clear
12:56 PM 41.0 °F 38.0 °F 18.0 °F 40% 30.56 in 10.0 mi Variable 4.6 mph - N/A   Clear
1:56 PM 43.0 °F 38.2 °F 18.0 °F 37% 30.53 in 10.0 mi NW 8.1 mph - N/A   Clear
2:56 PM 45.0 °F 40.6 °F 18.0 °F 34% 30.50 in 10.0 mi NW 8.1 mph - N/A   Clear
3:56 PM 45.0 °F 41.8 °F 18.0 °F 34% 30.48 in 10.0 mi WNW 5.8 mph - N/A   Clear
4:56 PM 45.0 °F - 18.0 °F 34% 30.46 in 10.0 mi Calm Calm - N/A   Clear
5:56 PM 41.0 °F - 19.0 °F 41% 30.46 in 10.0 mi Calm Calm - N/A   Clear
6:56 PM 37.0 °F - 21.0 °F 52% 30.47 in 10.0 mi Calm Calm - N/A   Clear
7:56 PM 33.1 °F - 24.1 °F 70% 30.47 in 10.0 mi Calm Calm - N/A   Clear
8:56 PM 33.1 °F - 23.0 °F 66% 30.48 in 10.0 mi Calm Calm - N/A   Clear
9:56 PM 33.1 °F - 23.0 °F 66% 30.47 in 10.0 mi Calm Calm - N/A   Clear
10:56 PM 30.9 °F - 23.0 °F 72% 30.47 in 10.0 mi Calm Calm - N/A   Clear
11:56 PM 30.9 °F - 23.0 °F 72% 30.46 in 10.0 mi Calm Calm - N/A   Clear